[[{"header":{"parameterUnit":"m.s-1","parameterCategory":1,"la1":30.2991,"la2":30.254,"lo1":-89.0895,"lo2":-89.0444,"dy":0.0017,"dx":0.0017,"nx":28,"ny":28,"refTime":"2025-12-01T03:00:00:Z","depth":0,"parameterNumber":2,"parameterNumberName":"U-component_of_WINDS"},"data":[0,0,0,0,0,0,0,0,0,0,0,0,0,0,0,0,0,0,0,0,0,0,0,0,0,0,0,0,0,0,0,0,0,0,0,0,0,0,0,0,0,0,0,0,0,0,0,0,0,0,0,0,0,0,0,0,0,0,-2.9902,-2.9903,0,-2.9965,-2.9965,-2.9966,-2.988,-2.9877,-2.9874,-2.9871,-2.9938,-2.9942,-2.9947,0,0,0,0,0,0,0,0,0,0,0,0,0,-2.9711,-2.9715,-2.9902,-2.9903,-2.9904,-2.9965,-2.9965,-2.9966,-2.9881,-2.9877,-2.9873,-2.987,-2.9936,-2.9942,-2.9947,0,0,0,0,0,0,0,0,0,0,0,0,0,-2.9786,-2.9716,-2.9902,-2.9868,-2.9866,-2.9964,-2.9965,-2.9967,-2.9881,-2.9877,-2.9872,-2.9868,-2.9935,-2.9941,-2.9948,-3.0084,0,0,-2.997,-2.9973,0,0,0,0,0,0,0,0,-2.9782,-2.9793,-2.9873,-2.9871,-2.9868,-2.991,-2.9922,-3.0006,-2.9883,-2.9876,-2.9871,-2.9866,-2.9933,-2.9939,-2.9961,-3.0087,-3.009,-2.997,-2.9974,-2.9977,-2.9979,0,0,0,0,0,0,0,-2.9777,-2.979,-2.9927,-2.9874,-2.9871,-2.9851,-2.9856,-2.9938,-2.9929,-2.9876,-2.987,-2.9878,-2.993,-2.9955,-2.9962,-3.0091,-2.997,-2.9976,-2.998,-2.9983,-3.0331,-3.0336,0,0,0,0,0,0,-2.9775,-2.9786,-2.9925,-2.9929,-2.9813,-2.9858,-2.9864,-2.9901,-2.9928,-2.9928,-2.9882,-2.9874,-2.9945,-2.9954,-2.9964,-3.0126,-2.9977,-2.9984,-2.9988,-3.0326,-3.0332,-3.0338,0,0,0,0,0,0,-2.9771,-2.9788,-2.9922,-2.9856,-2.9871,-2.9866,-2.9909,-2.9905,-2.9929,-2.9933,-2.9931,-2.9908,-2.9942,-2.9954,-3.0055,-3.0127,-2.9987,-2.9993,-3.032,-3.0328,-3.0335,-3.0449,0,0,0,0,0,0,-2.9766,-2.9788,-2.9839,-2.9858,-2.9875,-3.0012,-2.9913,-2.9909,-2.9941,-2.9931,-2.9957,-2.9957,-2.9939,-3.0045,-3.0062,-3.0134,-2.9999,-3.0314,-3.0324,-3.0333,-3.0439,-3.0459,-3.0477,0,0,0,0,0,-2.976,-2.9869,-2.9842,-2.9859,-2.9939,-3.0016,-3.0026,-3.0003,-2.9947,-2.9999,-3.0001,-2.9956,-3.0115,-3.0056,-3.0074,-3.0149,-3.0309,-3.0321,-3.0332,-3.043,-3.0455,-3.0477,0,0,0,0,0,0,-2.986,-2.9871,-2.9841,-2.9959,-2.9987,-3.0001,-3.0066,-3.003,-3.0075,-3.0064,-3.0034,-3.004,-3.0148,-3.0158,-3.0091,-3.0282,-3.0203,-3.0219,-3.0272,-3.0296,-3.0315,-3.0311,-3.0005,0,0,0,0,0,-2.9895,-2.9956,-2.9962,-3.0066,-3.0082,-3.0072,-3.0104,-3.0083,-3.0112,-3.0124,-3.0133,-3.0163,-3.022,-3.0258,-3.031,-3.0439,-3.0444,-3.05,-3.0519,-3.0535,-3.0549,-3.0619,-3.0644,-3.0375,-3.0375,-3.0375,0,0,-2.997,-2.9983,-3.0024,-3.0087,-3.0106,-3.0171,-3.0082,-3.0154,-3.0202,-3.0135,-3.023,-3.0238,-3.0269,-3.0385,-3.0436,-3.0397,-3.0624,-3.0549,-3.0562,-3.0568,-3.0633,-3.0659,-3.0682,-3.0383,-3.0381,-3.038,0,0,-3.0139,-3.0155,-3.0243,-3.0264,-3.0294,-3.0286,-3.0308,-3.0327,-3.033,-3.0424,-3.0375,-3.0432,-3.053,-3.0554,-3.058,-3.0757,-3.0718,-3.0775,-3.0877,-3.0945,-3.0966,-3.0985,-3.105,-3.1073,-3.0789,-3.079,-3.079,0,-3.0229,-3.0323,-3.0294,-3.0369,-3.0399,-3.0339,-3.0429,-3.0451,-3.0497,-3.0519,-3.0474,-3.0596,-3.0613,-3.0733,-3.0777,-3.0798,-3.0823,-3.0773,-3.0965,-3.0984,-3.1001,-3.1062,-3.1087,-3.0796,-3.0796,-3.0795,-3.0794,0,-3.0433,-3.0499,-3.0567,-3.0612,-3.0649,-3.0731,-3.0715,-3.0756,-3.0731,-3.0729,-3.0826,-3.0844,-3.0899,-3.0926,-3.0903,-3.1044,-3.1018,-3.097,-3.089,-3.1034,-3.1091,-3.1115,-3.0806,-3.0804,-3.0802,-3.08,0,0,-3.0669,-3.0695,-3.0721,-3.0741,-3.0769,-3.082,-3.09,-3.0952,-3.0989,-3.1022,-3.1089,-3.1173,-3.1128,-3.1157,-3.1136,-3.1196,-3.1337,-3.114,-3.114,-3.1178,-3.1495,-3.1533,-3.156,-3.131,-3.1315,-3.1318,-3.1493,0,-3.0839,-3.0976,-3.0952,-3.1086,-3.1147,-3.1091,-3.116,-3.1186,-3.1185,-3.1237,-3.1236,-3.1297,-3.1232,-3.1249,-3.1306,-3.1308,-3.1401,-3.1295,-3.1374,-3.1377,-3.137,-3.159,-3.163,-3.1794,-3.1515,-3.1518,-3.1521,0,-3.1057,-3.1097,-3.1238,-3.1256,-3.1281,-3.1344,-3.139,-3.1441,-3.1468,-3.1463,-3.1495,-3.1463,-3.1543,-3.1461,-3.1572,-3.15,-3.1531,-3.1537,-3.1542,-3.1551,-3.146,-3.1606,-3.1846,-3.1871,-3.1556,-3.1553,-3.1551,0,-3.1217,-3.1307,-3.1402,-3.1421,-3.1444,-3.149,-3.1502,-3.1524,-3.1558,-3.1598,-3.162,-3.167,-3.1698,-3.1737,-3.172,-3.1661,-3.1835,-3.175,-3.1834,-3.1835,-3.1875,-3.1873,-3.2125,-3.1892,-3.1891,-3.1891,-3.189,0,-3.1412,-3.15,-3.1475,-3.1534,-3.1631,-3.1602,-3.1699,-3.1704,-3.1725,-3.1785,-3.1738,-3.1795,-3.1767,-3.1823,-3.181,-3.1904,-3.1917,-3.1916,-3.1912,-3.1922,-3.1922,-3.1943,-3.1932,-3.1897,-3.1896,-3.1895,-3.1894,0,-3.1609,-3.1595,-3.1696,-3.1709,-3.1714,-3.1785,-3.1797,-3.1853,-3.1847,-3.1923,-3.194,-3.1932,-3.1995,-3.1981,-3.205,-3.204,-3.216,-3.2141,-3.2151,-3.2147,-3.2232,-3.2225,-3.2509,-3.2545,-3.2286,-3.2288,-3.229,0,-3.1735,-3.1801,-3.1821,-3.1857,-3.1872,-3.1931,-3.1965,-3.1938,-3.1975,-3.2011,-3.2062,-3.212,-3.2166,-3.2269,-3.227,-3.2323,-3.2305,-3.2401,-3.2313,-3.2321,-3.2309,-3.2306,-3.2313,-3.2419,-3.2422,-3.2425,-3.2427,0,-3.196,-3.195,-3.1999,-3.2047,-3.2088,-3.2125,-3.2157,-3.2189,-3.2165,-3.2209,-3.2272,-3.2307,-3.2376,-3.2436,-3.2484,-3.2496,-3.2459,-3.2454,-3.2476,-3.2488,-3.2492,-3.2493,-3.2201,-3.2448,-3.2446,-3.2444,-3.2443,-3.2442,-3.2127,-3.2183,-3.2206,-3.2263,-3.2284,-3.2315,-3.2368,-3.2369,-3.2421,-3.2475,-3.2455,-3.2528,-3.2553,-3.2614,-3.2633,-3.269,-3.2654,-3.2686,-3.2695,-3.2704,-3.2715,-3.2481,-3.2698,-3.2697,-3.2697,-3.2696,-3.2696,0,-3.2351,-3.2363,-3.2415,-3.2461,-3.2506,-3.2464,-3.2497,-3.2538,-3.2602,-3.2629,-3.2674,-3.2747,-3.2803,-3.2808,-3.2862,-3.2907,-3.2891,-3.2922,-3.2919,-3.2923,-3.2743,-3.2719,-3.2934,-3.2934,-3.2934,-3.2934,-3.2934,-3.2934,-3.2474,-3.2568,-3.256,-3.2664,-3.2675,-3.2745,-3.2768,-3.2796,-3.2817,-3.29,-3.2947,-3.2949,-3.2967,-3.3022,-3.3072,-3.3072,-3.3095,-3.3134,-3.3127,-3.2959,-3.2936,-3.2913,-3.2891,-3.3138,-3.3138,-3.3303,-3.3304,-3.3306]},{"header":{"parameterUnit":"m.s-1","parameterCategory":1,"la1":30.2991,"la2":30.254,"lo1":-89.0895,"lo2":-89.0444,"dy":0.0017,"dx":0.0017,"nx":28,"ny":28,"refTime":"2025-12-01T03:00:00:Z","depth":0,"parameterNumber":3,"parameterNumberName":"V-component_of_WINDS"},"data":[0,0,0,0,0,0,0,0,0,0,0,0,0,0,0,0,0,0,0,0,0,0,0,0,0,0,0,0,0,0,0,0,0,0,0,0,0,0,0,0,0,0,0,0,0,0,0,0,0,0,0,0,0,0,0,0,0,0,-4.6835,-4.6836,0,-4.6882,-4.6883,-4.6883,-4.6831,-4.6829,-4.6827,-4.6825,-4.6871,-4.6873,-4.6876,0,0,0,0,0,0,0,0,0,0,0,0,0,-4.6696,-4.6699,-4.6835,-4.6836,-4.6837,-4.6882,-4.6883,-4.6884,-4.6832,-4.6829,-4.6827,-4.6825,-4.687,-4.6873,-4.6877,0,0,0,0,0,0,0,0,0,0,0,0,0,-4.6751,-4.67,-4.6835,-4.6816,-4.6815,-4.6882,-4.6883,-4.6884,-4.6832,-4.6829,-4.6826,-4.6823,-4.6868,-4.6873,-4.6877,-4.6965,0,0,-4.6891,-4.6893,0,0,0,0,0,0,0,0,-4.6748,-4.6756,-4.6818,-4.6818,-4.6816,-4.6848,-4.685,-4.6911,-4.6833,-4.6826,-4.6825,-4.6822,-4.6865,-4.687,-4.6885,-4.6967,-4.6969,-4.6892,-4.6894,-4.6896,-4.6898,0,0,0,0,0,0,0,-4.6745,-4.6754,-4.6854,-4.6819,-4.6818,-4.6804,-4.6808,-4.6862,-4.6861,-4.6826,-4.6822,-4.6829,-4.6864,-4.6881,-4.6886,-4.6969,-4.6891,-4.6895,-4.6898,-4.69,-4.7123,-4.7126,0,0,0,0,0,0,-4.6743,-4.6751,-4.6852,-4.6855,-4.6774,-4.6809,-4.6814,-4.6841,-4.6861,-4.6861,-4.6831,-4.6826,-4.6874,-4.688,-4.6887,-4.6989,-4.6896,-4.6901,-4.6903,-4.712,-4.7123,-4.7127,0,0,0,0,0,0,-4.6741,-4.6753,-4.685,-4.6802,-4.6814,-4.6814,-4.6845,-4.6843,-4.686,-4.6865,-4.6864,-4.6849,-4.6872,-4.6881,-4.6945,-4.699,-4.6903,-4.6907,-4.7116,-4.7121,-4.7125,-4.7196,0,0,0,0,0,0,-4.6737,-4.6752,-4.6787,-4.6804,-4.6816,-4.691,-4.6848,-4.6846,-4.6868,-4.6862,-4.6881,-4.6881,-4.6871,-4.6939,-4.695,-4.6995,-4.691,-4.7112,-4.7118,-4.7124,-4.7189,-4.7202,-4.7213,0,0,0,0,0,-4.6732,-4.6804,-4.6789,-4.6801,-4.686,-4.6912,-4.6919,-4.6907,-4.6872,-4.6906,-4.6908,-4.688,-4.6984,-4.6946,-4.6958,-4.7005,-4.7109,-4.7116,-4.7123,-4.7184,-4.72,-4.7213,0,0,0,0,0,0,-4.6792,-4.6806,-4.6789,-4.6869,-4.689,-4.6903,-4.6946,-4.6924,-4.6955,-4.6948,-4.693,-4.6934,-4.7003,-4.701,-4.6968,-4.709,-4.704,-4.705,-4.7082,-4.7098,-4.7109,-4.7106,-4.6914,0,0,0,0,0,-4.6814,-4.6857,-4.6867,-4.6937,-4.6948,-4.6945,-4.6968,-4.6956,-4.6977,-4.6985,-4.6992,-4.7012,-4.7049,-4.7074,-4.7108,-4.719,-4.7192,-4.7228,-4.724,-4.725,-4.7259,-4.7301,-4.7317,-4.715,-4.715,-4.715,0,0,-4.6861,-4.6874,-4.6902,-4.6949,-4.6964,-4.7007,-4.6953,-4.7001,-4.7033,-4.6992,-4.7054,-4.706,-4.7081,-4.7154,-4.7187,-4.7162,-4.7305,-4.7259,-4.7267,-4.727,-4.731,-4.7326,-4.734,-4.7155,-4.7154,-4.7154,0,0,-4.6969,-4.6984,-4.7043,-4.7059,-4.7082,-4.7079,-4.7094,-4.711,-4.7113,-4.7175,-4.7144,-4.7181,-4.7245,-4.7261,-4.7277,-4.7389,-4.7364,-4.7401,-4.7463,-4.7505,-4.7518,-4.753,-4.7569,-4.7583,-4.7409,-4.741,-4.741,0,-4.7024,-4.7089,-4.7075,-4.7126,-4.7147,-4.7112,-4.7171,-4.7186,-4.7219,-4.7234,-4.7206,-4.7285,-4.7297,-4.7373,-4.74,-4.7415,-4.7429,-4.7399,-4.7518,-4.7529,-4.7539,-4.7576,-4.7591,-4.7414,-4.7413,-4.7413,-4.7413,0,-4.7155,-4.7201,-4.7245,-4.7279,-4.7304,-4.7359,-4.7352,-4.7379,-4.7365,-4.7365,-4.7427,-4.744,-4.7475,-4.7492,-4.7479,-4.7566,-4.755,-4.7521,-4.7471,-4.756,-4.7594,-4.7608,-4.742,-4.7418,-4.7417,-4.7416,0,0,-4.7302,-4.7327,-4.7343,-4.7357,-4.738,-4.7414,-4.7466,-4.7502,-4.7525,-4.7548,-4.759,-4.7645,-4.7617,-4.7636,-4.7623,-4.766,-4.7747,-4.7625,-4.7626,-4.7647,-4.7842,-4.7864,-4.7881,-4.773,-4.7733,-4.7735,-4.784,0,-4.7409,-4.7501,-4.7489,-4.7576,-4.7617,-4.7584,-4.7629,-4.7647,-4.7648,-4.7682,-4.7682,-4.7721,-4.7682,-4.7692,-4.7727,-4.7729,-4.7785,-4.7721,-4.7768,-4.777,-4.7763,-4.7899,-4.7922,-4.8021,-4.7853,-4.7856,-4.7857,0,-4.7547,-4.7576,-4.7667,-4.7682,-4.7699,-4.774,-4.7771,-4.7804,-4.7823,-4.7821,-4.7841,-4.7822,-4.7872,-4.7822,-4.789,-4.7846,-4.7864,-4.7868,-4.7871,-4.7875,-4.7819,-4.7905,-4.8052,-4.8067,-4.7878,-4.7877,-4.7875,0,-4.7644,-4.7706,-4.7768,-4.7781,-4.7801,-4.783,-4.7839,-4.7855,-4.7877,-4.7903,-4.7916,-4.7948,-4.7966,-4.799,-4.7979,-4.7944,-4.8049,-4.7998,-4.8047,-4.8048,-4.8071,-4.807,-4.8222,-4.8084,-4.8084,-4.8083,-4.8083,0,-4.7765,-4.7822,-4.7812,-4.785,-4.7912,-4.7897,-4.7959,-4.7963,-4.7978,-4.8015,-4.7988,-4.8024,-4.8008,-4.8042,-4.8034,-4.8091,-4.8099,-4.8097,-4.8094,-4.81,-4.81,-4.8111,-4.8104,-4.8087,-4.8086,-4.8086,-4.8085,0,-4.7884,-4.788,-4.7945,-4.7958,-4.7962,-4.8007,-4.8017,-4.8052,-4.8051,-4.8098,-4.8109,-4.8106,-4.8144,-4.8136,-4.8178,-4.8173,-4.8244,-4.8233,-4.8238,-4.8235,-4.8285,-4.828,-4.845,-4.8471,-4.832,-4.8321,-4.8322,0,-4.7961,-4.8004,-4.8021,-4.8045,-4.8056,-4.8095,-4.8117,-4.8103,-4.8127,-4.8151,-4.8182,-4.8219,-4.8247,-4.8309,-4.831,-4.8342,-4.8331,-4.8388,-4.8335,-4.8338,-4.833,-4.8328,-4.8331,-4.8398,-4.84,-4.8401,-4.8403,0,-4.8098,-4.8093,-4.8127,-4.8159,-4.8186,-4.8211,-4.8232,-4.8253,-4.8241,-4.8269,-4.8308,-4.833,-4.8373,-4.8408,-4.8437,-4.8445,-4.8422,-4.8419,-4.8432,-4.8438,-4.8438,-4.8438,-4.8266,-4.8415,-4.8414,-4.8413,-4.8412,-4.8412,-4.8198,-4.8234,-4.8251,-4.8289,-4.8304,-4.8325,-4.8358,-4.8361,-4.8393,-4.8428,-4.8417,-4.8462,-4.8477,-4.8514,-4.8525,-4.8559,-4.8537,-4.8556,-4.8561,-4.8566,-4.8571,-4.8434,-4.8564,-4.8564,-4.8563,-4.8563,-4.8563,0,-4.8332,-4.8342,-4.8377,-4.8408,-4.8437,-4.8413,-4.8436,-4.8461,-4.8501,-4.8518,-4.8547,-4.8591,-4.8625,-4.8629,-4.866,-4.8686,-4.8676,-4.8695,-4.8693,-4.8694,-4.8589,-4.8575,-4.8703,-4.8702,-4.8702,-4.8702,-4.8702,-4.8702,-4.8406,-4.8466,-4.8463,-4.8529,-4.8538,-4.8582,-4.8596,-4.8615,-4.8628,-4.8679,-4.8708,-4.871,-4.8721,-4.8753,-4.8783,-4.8783,-4.8795,-4.8818,-4.8814,-4.8716,-4.8702,-4.8689,-4.8675,-4.8821,-4.8822,-4.8916,-4.8917,-4.8918]}]]